This demonstration page uses our WeatherBlox Daily Observations layout. Learn more.

Left ArrowRight Arrow

Hourly Observations for November 15, 2016

Temp ( °F °C ) Dew Point ( °F °C ) Humidity (%) Winds ( mph kmh ) Pressure ( in mb ) Visibility ( mi km ) Precip ( " mm )
12:13 am 00:13 Cloudy 55 12.8 52 11.1 90 90 N 8 13 29.91 1013 9 14 0.00 0.00
12:59 am 00:59 Cloudy 53 11.7 51 10.6 93 93 NW 8 13 29.91 1013 7 11 0.00 0.00
1:59 am 01:59 Cloudy 53 11.7 50 10 89 89 WNW 8 13 29.91 1013 9 14 0.00 0.00
2:59 am 02:59 Cloudy 50 10 47 8.3 89 89 WNW 10 17 29.92 1013 8 13 0.00 0.00
3:14 am 03:14 Cloudy 50 10 47 8.3 89 89 WNW 9 15 29.91 1013 9 14 0.00 0.00
3:48 am 03:48 Cloudy 50 10 46 7.8 86 86 NW 9 15 29.91 1013 9 14 0.00 0.00
3:59 am 03:59 Cloudy 50 10 47 8.3 89 89 NW 9 15 29.92 1013 9 14 0.00 0.00
4:46 am 04:46 Cloudy with Light Rain 49 9.4 45 7.2 86 86 WNW 9 15 29.94 1014 5 8 0.00 0.03
4:59 am 04:59 Cloudy 49 9.4 45 7.2 86 86 WNW 9 15 29.93 1013 10 16 0.00 0.03
5:59 am 05:59 Cloudy with Light Rain 49 9.4 44 6.7 83 83 WNW 8 13 29.93 1014 6 10 0.00 0.03
6:59 am 06:59 Cloudy 49 9.4 43 6.1 80 80 NW 6 9 29.93 1014 10 16 0.01 0.25
7:31 am 07:31 Mostly Cloudy 49 9.4 43 6.1 80 80 WNW 8 13 29.94 1014 10 16 0.00 0.00
7:59 am 07:59 Partly Cloudy 51 10.6 43 6.1 74 74 WNW 8 13 29.94 1014 10 16 0.00 0.00
8:59 am 08:59 Partly Cloudy 53 11.7 42 5.6 66 66 W 8 13 29.94 1014 10 16 0.00 0.00
9:59 am 09:59 Mostly Sunny 55 12.8 45 7.2 69 69 WNW 6 9 29.93 1014 10 16 0.00 0.00
10:59 am 10:59 Mostly Sunny 56 13.3 45 7.2 67 67 W 10 17 29.92 1013 10 16 0.00 0.00
11:59 am 11:59 Partly Cloudy 58 14.4 44 6.7 60 60 W 8 13 29.90 1013 10 16 0.00 0.00
12:59 pm 12:59 Partly Cloudy 60 15.6 45 7.2 58 58 WNW 8 13 29.88 1012 10 16 0.00 0.00
1:59 pm 13:59 Mostly Sunny 60 15.6 47 8.3 62 62 WNW 8 13 29.87 1011 10 16 0.00 0.00
2:59 pm 14:59 Mostly Sunny 60 15.6 46 7.8 60 60 WNW 7 11 29.87 1011 10 16 0.00 0.00
3:59 pm 15:59 Mostly Sunny 58 14.4 46 7.8 65 65 W 9 15 29.87 1012 10 16 0.00 0.00
4:59 pm 16:59 Mostly Clear 56 13.3 46 7.8 70 70 WNW 9 15 29.88 1012 10 16 0.00 0.00
5:59 pm 17:59 Mostly Clear 55 12.8 44 6.7 67 67 W 5 7 29.89 1012 10 16 0.00 0.00
6:59 pm 18:59 Mostly Clear 50 10 44 6.7 80 80 WSW 5 7 29.89 1012 10 16 0.00 0.00
7:59 pm 19:59 Clear 50 10 46 7.8 86 86 SW 3 6 29.88 1012 10 16 0.00 0.00
8:59 pm 20:59 Clear 49 9.4 46 7.8 90 90 SW 5 7 29.89 1012 10 16 0.00 0.00
9:59 pm 21:59 Clear 46 7.8 44 6.7 93 93 SW 6 9 29.89 1012 9 14 0.00 0.00
10:59 pm 22:59 Clear 48 8.9 45 7.2 89 89 WSW 6 9 29.90 1013 10 16 0.00 0.00
11:59 pm 23:59 Clear 46 7.8 44 6.7 93 93 Calm 29.90 1012 9 14 0.00 0.00

Powered by AerisWeather